Regional Weather Roundup
Issued by NWS Newport/Morehead, NC

Current Version | Previous Version | Graphics & Text | Print | Product List | Glossary Off
Versions: 1 2 3 4 5 6 7 8 9 10 11 12 13 14 15 16 17 18 19 20 21 22 23 24 25 26 27 28 29 30 31 32 33 34 35 36 37 38 39 40 41 42 43 44 45 46 47 48 49 50

000
ASUS42 KMHX 100610
RWRMHX
WEATHER ROUNDUP FOR EASTERN NORTH CAROLINA
NATIONAL WEATHER SERVICE NEWPORT/MOREHEAD CITY NC
200 AM EDT THU JUL 10 2014

NOTE: "FAIR" INDICATES FEW OR NO CLOUDS BELOW 12,000 FEET
WITH NO SIGNIFICANT WEATHER AND/OR OBSTRUCTIONS TO VISIBILITY

NCZ015>017-031-032-045>047-102-103-100700-
NORTH COAST

CITY           SKY/WX    TMP DP  RH WIND       PRES   REMARKS
EDENTON        MOCLDY    75  73  93 CALM      30.04S
ELIZABETH CITY MOCLDY    71  69  93 SE3       30.04F
KITTY HAWK     MOCLDY    74  70  86 CALM      30.04S
MANTEO           N/A     79  75  89 SW10      30.05S

$$

NCZ045>047-081-094-103-104-100700-
CENTRAL COAST

CITY           SKY/WX    TMP DP  RH WIND       PRES   REMARKS
FRISCO         PTCLDY    81  76  84 SW12G20   30.07S
SWANQUARTER      N/A     81 N/A N/A SW13G18   30.00F

$$

NCZ095-097-098-100-101-100700-
SOUTHERN COAST

CITY           SKY/WX    TMP DP  RH WIND       PRES   REMARKS
BEAUFORT       MOCLDY    82  77  84 SW16      30.07S
CEDAR ISLAND     N/A     81 N/A N/A S8G15     30.09S
JACKSONVILLE   CLEAR     78  74  87 S7        30.05F
NEWPORT        NOT AVBL
PINEY ISLAND   CLEAR     81  78  91 S14       30.05F
WILMINGTON     CLEAR     80  74  81 SW9       30.05F


$$

NCZ011>013-027>030-043-044-078>080-089-090>093-098-100700-
COASTAL PLAIN

CITY           SKY/WX    TMP DP  RH WIND       PRES   REMARKS
AHOSKIE        CLOUDY    72  70  93 CALM      30.02F
CLINTON        CLOUDY    77  74  91 CALM      30.03F
ELIZABETHTOWN  LGT RAIN  79  73  84 S6        30.04F
GOLDSBORO      CLOUDY    78  77  98 W5        30.02S
GREENVILLE     CLOUDY    77  73  88 SW7       30.04F
HAVELOCK       PTCLDY    80  74  81 SW8       30.07S
KENANSVILLE    MOCLDY    77  73  86 CALM      30.04F
KINSTON        CLOUDY    78  74  86 S7        30.04S
NEW BERN       PTCLDY    79  74  84 S6        30.06F
RICHLANDS      PTCLDY    75  72  88 S7        30.05F
ROANOKE RAPIDS NOT AVBL
ROCKY MOUNT    CLOUDY    74  71  91 CALM      30.02F
WASHINGTON     MOCLDY    78  73  83 SW9       30.04F
WHITEVILLE     CLOUDY    78  74  87 S3        30.04F

$$

AMZ130-135-150-152-154-156-158-170-250-252-270-ANZ085-086-088-633-658-670-100700-
MARINE OBSERVATIONS

STATION/POSITION TIME  TEMP    WIND        PRES    WAVE   SWELL
                       AIR SEA DIR/SP/G            HT/PER HT/PER
                 (UTC) (F)     (DEG/KT/KT) (MB)    (FT/S) (FT/S)
CHESAPEAKE LIGHT NOT AVBL
BUOY 44014       0600   76 75  300/  6/  8 1017.2    4/ 6   3/ 6
DUCK             0600   73 65  100/  2/  2 1016.8
2E DUCK          0600                        N/A     2/ 9
OREGON INLET     0600   81 84  220/ 16/ 20 1017.5
BUOY 44095       0600      80                N/A     4/ 5
HATTERAS CG      0600   80 82  210/ 10/ 17 1018.6
DIAMOND BUOY     0600          VRB 17/ 19  1018.2    6/ 6   2/ 9
17S OCRACOKE INL NOT AVBL
CAPE LOOKOUT     0500   81     200/ 10/ 15 1018.4
BEAUFORT LAB     0600   81 82  210/ 12/ 16 1017.8
30 SE NEW RIVER  0600   81 81  210/ 17/ 19 1018.2    5/ 6
5 SE WRIGHTSVILL 0500   78 81  220/ 17/ 21 1018.2
FRYING PAN BUOY  NOT AVBL
BUOY 41001       NOT AVBL
BUOY 41002       0515   81 81  210/ 17/ 19 1021.1    4/10   2/10
BUOY 41004       0600   82 81  200/ 16/ 17 1017.0    5/ 5   2/ 9

$$



USA.gov is the U.S. government's official web portal to all federal, state and local government web resources and services.